When you browse on this site, cookies collect data to enhance your experience and personalize the content and advertising you see.
Visit our Privacy Policy to learn more. By continuing to use the site, you agree to this use of cookies and data.
  • In Spain
  • List of Countries
  • For 7 days
  • Water Temperature
  • Weather Map
  • Weather Widgets
  • user-avatar
    Login

    Hourly Weather Fuenlabrada

    Today, 17 February, Monday

    Time Temperature Precipitation Wind Pressure Humidity
    00:00 +9°C° 0 mm 3 mps 710 mmHg 82%
    01:00 +8°C° 0 mm 3 mps 710 mmHg 84%
    02:00 +8°C° 0 mm 3 mps 710 mmHg 86%
    03:00 +8°C° 0 mm 3 mps 709 mmHg 88%
    04:00 +8°C° 0 mm 3 mps 709 mmHg 89%
    05:00 +7°C° 0 mm 3 mps 709 mmHg 90%
    06:00 +7°C° 0 mm 2 mps 709 mmHg 91%
    07:00 +8°C° 0 mm 3 mps 709 mmHg 88%
    08:00 +8°C° 0 mm 3 mps 709 mmHg 86%
    09:00 +9°C° 0 mm 3 mps 709 mmHg 83%
    10:00 +10°C° 0 mm 3 mps 710 mmHg 78%
    11:00 +12°C° 0 mm 3 mps 710 mmHg 73%
    12:00 +13°C° 0 mm 4 mps 710 mmHg 68%
    13:00 +13°C° 0 mm 3 mps 710 mmHg 66%
    14:00 +14°C° 0 mm 3 mps 710 mmHg 65%
    15:00 +16°C° 0 mm 3 mps 710 mmHg 63%
    16:00 +14°C° 0 mm 3 mps 710 mmHg 67%
    17:00 +13°C° 0 mm 3 mps 710 mmHg 71%
    18:00 +13°C° 0 mm 2 mps 710 mmHg 75%
    19:00 +12°C° 0 mm 3 mps 711 mmHg 72%
    20:00 +11°C° 0 mm 3 mps 711 mmHg 69%
    21:00 +10°C° 0 mm 3 mps 712 mmHg 67%
    22:00 +10°C° 0 mm 3 mps 712 mmHg 66%
    23:00 +9°C° 0 mm 3 mps 712 mmHg 64%

    Tomorrow, 18 February, Tuesday

    Time Temperature Precipitation Wind Pressure Humidity
    00:00 +9°C° 0 mm 3 mps 712 mmHg 63%
    01:00 +8°C° 0 mm 3 mps 712 mmHg 65%
    02:00 +7°C° 0 mm 4 mps 712 mmHg 68%
    03:00 +6°C° 0 mm 4 mps 711 mmHg 70%
    04:00 +6°C° 0 mm 4 mps 711 mmHg 70%
    05:00 +5°C° 0 mm 4 mps 711 mmHg 71%
    06:00 +5°C° 0 mm 4 mps 711 mmHg 72%
    07:00 +6°C° 0 mm 4 mps 712 mmHg 69%
    08:00 +6°C° 0 mm 4 mps 712 mmHg 65%
    09:00 +7°C° 0 mm 4 mps 712 mmHg 62%
    10:00 +9°C° 0 mm 3 mps 712 mmHg 60%
    11:00 +10°C° 0 mm 3 mps 712 mmHg 58%
    12:00 +11°C° 0 mm 3 mps 712 mmHg 56%
    13:00 +13°C° 0 mm 2 mps 711 mmHg 56%
    14:00 +13°C° 0 mm 2 mps 711 mmHg 56%
    15:00 +14°C° 0 mm 2 mps 710 mmHg 55%
    16:00 +13°C° 0 mm 2 mps 710 mmHg 59%
    17:00 +13°C° 0 mm 2 mps 710 mmHg 62%
    18:00 +12°C° 0 mm 1 mps 710 mmHg 65%
    19:00 +10°C° 0 mm 2 mps 711 mmHg 66%
    20:00 +10°C° 0 mm 2 mps 711 mmHg 68%
    21:00 +9°C° 0 mm 2 mps 712 mmHg 70%
    22:00 +9°C° 0 mm 2 mps 712 mmHg 70%
    23:00 +8°C° 0 mm 2 mps 712 mmHg 70%

    Day after tomorrow, 19 February, Wednesday

    Time Temperature Precipitation Wind Pressure Humidity
    00:00 +8°C° 0 mm 3 mps 712 mmHg 70%
    01:00 +7°C° 0 mm 3 mps 712 mmHg 69%
    02:00 +7°C° 0 mm 2 mps 712 mmHg 68%
    03:00 +6°C° 0 mm 2 mps 712 mmHg 68%
    04:00 +6°C° 0 mm 2 mps 711 mmHg 69%
    05:00 +6°C° 0 mm 2 mps 711 mmHg 70%
    06:00 +5°C° 0 mm 2 mps 711 mmHg 71%
    07:00 +6°C° 0 mm 2 mps 711 mmHg 69%
    08:00 +7°C° 0 mm 2 mps 712 mmHg 67%
    09:00 +8°C° 0 mm 2 mps 712 mmHg 66%
    10:00 +9°C° 0 mm 2 mps 712 mmHg 63%
    11:00 +12°C° 0 mm 2 mps 712 mmHg 60%
    12:00 +13°C° 0 mm 2 mps 712 mmHg 56%
    13:00 +14°C° 0 mm 1 mps 711 mmHg 52%
    14:00 +14°C° 0 mm 1 mps 710 mmHg 47%
    15:00 +15°C° 0 mm 1 mps 710 mmHg 43%
    16:00 +14°C° 0 mm 1 mps 709 mmHg 47%
    17:00 +13°C° 0 mm 1 mps 709 mmHg 51%
    18:00 +10°C° 0 mm 0 mps 709 mmHg 56%
    19:00 +11°C° 0 mm 1 mps 709 mmHg 56%
    20:00 +10°C° 0 mm 1 mps 709 mmHg 57%
    21:00 +10°C° 0 mm 1 mps 709 mmHg 58%
    22:00 +10°C° 0 mm 1 mps 709 mmHg 60%
    23:00 +9°C° 0 mm 1 mps 709 mmHg 63%

    20 February, Thursday

    Time Temperature Precipitation Wind Pressure Humidity
    00:00 +8°C° 0 mm 1 mps 708 mmHg 66%
    01:00 +8°C° 0 mm 1 mps 708 mmHg 70%
    02:00 +8°C° 0 mm 1 mps 707 mmHg 74%
    03:00 +7°C° 0 mm 1 mps 707 mmHg 78%
    04:00 +7°C° 0 mm 1 mps 707 mmHg 79%
    05:00 +6°C° 0 mm 1 mps 706 mmHg 81%
    06:00 +6°C° 0 mm 1 mps 706 mmHg 82%
    07:00 +7°C° 0 mm 1 mps 706 mmHg 78%
    08:00 +8°C° 0 mm 1 mps 706 mmHg 74%
    09:00 +10°C° 0 mm 1 mps 706 mmHg 70%
    10:00 +11°C° 0 mm 1 mps 706 mmHg 64%
    11:00 +12°C° 0 mm 1 mps 706 mmHg 59%
    12:00 +14°C° 0 mm 2 mps 705 mmHg 53%
    13:00 +14°C° 0 mm 2 mps 705 mmHg 51%
    14:00 +15°C° 0 mm 2 mps 704 mmHg 49%
    15:00 +16°C° 0 mm 3 mps 703 mmHg 46%
    16:00 +15°C° 0 mm 2 mps 703 mmHg 51%
    17:00 +14°C° 0 mm 2 mps 703 mmHg 56%
    18:00 +13°C° 0 mm 1 mps 703 mmHg 61%
    19:00 +12°C° 0 mm 2 mps 704 mmHg 62%
    20:00 +10°C° 0 mm 2 mps 705 mmHg 64%
    21:00 +10°C° 0 mm 2 mps 705 mmHg 66%
    22:00 +10°C° 0 mm 3 mps 706 mmHg 64%
    23:00 +8°C° 0 mm 4 mps 706 mmHg 62%

    21 February, Friday

    Time Temperature Precipitation Wind Pressure Humidity
    00:00 +8°C° 0 mm 5 mps 707 mmHg 61%
    01:00 +7°C° 0 mm 6 mps 707 mmHg 60%
    02:00 +6°C° 0 mm 7 mps 707 mmHg 59%
    03:00 +5°C° 0 mm 7 mps 707 mmHg 59%
    04:00 +5°C° 0 mm 7 mps 708 mmHg 61%
    05:00 +5°C° 0 mm 7 mps 708 mmHg 63%
    06:00 +5°C° 0 mm 7 mps 709 mmHg 65%
    13:00 +14°C° 0 mm 3 mps 710 mmHg 43%
    14:00 +14°C° 0 mm 3 mps 710 mmHg 42%
    15:00 +16°C° 0 mm 2 mps 710 mmHg 40%
    16:00 +15°C° 0 mm 2 mps 710 mmHg 45%
    17:00 +14°C° 0 mm 1 mps 710 mmHg 50%
    18:00 +12°C° 0 mm 1 mps 710 mmHg 55%
    19:00 +12°C° 0 mm 1 mps 711 mmHg 59%
    20:00 +10°C° 0 mm 2 mps 712 mmHg 63%
    21:00 +10°C° 0 mm 2 mps 712 mmHg 67%
    22:00 +9°C° 0 mm 2 mps 713 mmHg 71%
    23:00 +9°C° 0 mm 1 mps 713 mmHg 75%

    22 February, Saturday

    Time Temperature Precipitation Wind Pressure Humidity
    00:00 +8°C° 0 mm 1 mps 713 mmHg 78%
    01:00 +8°C° 0 mm 1 mps 713 mmHg 80%
    02:00 +8°C° 0 mm 1 mps 713 mmHg 81%
    03:00 +7°C° 0 mm 1 mps 713 mmHg 82%
    04:00 +7°C° 0 mm 1 mps 713 mmHg 83%
    05:00 +7°C° 0 mm 1 mps 713 mmHg 83%
    06:00 +6°C° 0 mm 1 mps 713 mmHg 84%
    07:00 +7°C° 0 mm 1 mps 713 mmHg 78%
    08:00 +9°C° 0 mm 1 mps 714 mmHg 73%
    09:00 +10°C° 0 mm 1 mps 714 mmHg 67%
    10:00 +11°C° 0 mm 1 mps 714 mmHg 61%
    11:00 +13°C° 0 mm 2 mps 714 mmHg 55%
    12:00 +15°C° 0 mm 2 mps 714 mmHg 48%
    13:00 +15°C° 0 mm 2 mps 714 mmHg 45%
    14:00 +16°C° 0 mm 2 mps 713 mmHg 41%
    15:00 +17°C° 0 mm 2 mps 713 mmHg 37%
    16:00 +16°C° 0 mm 2 mps 713 mmHg 40%
    17:00 +15°C° 0 mm 2 mps 713 mmHg 44%
    18:00 +13°C° 0 mm 1 mps 712 mmHg 47%
    19:00 +13°C° 0 mm 2 mps 713 mmHg 49%
    20:00 +12°C° 0 mm 2 mps 713 mmHg 51%
    21:00 +10°C° 0 mm 2 mps 714 mmHg 53%
    22:00 +9°C° 0 mm 2 mps 714 mmHg 56%
    23:00 +9°C° 0 mm 2 mps 714 mmHg 59%
    Show more